• Join FlightAware (Why Join?)
  • Login
  • US Flag 
08:12AM EDT


 

Airport Tracker/Info


-or-


 

Live Flight TrackerFlight Track Log ✈ N888CH ✈ 30-Apr-2013 ✈ KDHN - KDHN

Flight Track Log - Related Links

Times and Time Zones

All times are in EDT time to prevent confusion due to time zone crossing. See the N888CH flight status page for this flight to view local times or setup timezone preferences in your user account.

Time Position Orientation Groundspeed Altitude Reporting Facility
EDT Latitude Longitude Course Direction KTS MPH feet Rate Location/Type
10:58AM 31.5133 -85.1783 North 106 122 3,500  Level Jacksonville Center
10:59AM 31.5114 -85.1636 99° East 107 123 3,500  Level Jacksonville Center
11:00AM 31.5142 -85.1297 84° East 103 119 3,600  Climbing Jacksonville Center
11:01AM 31.5225 -85.1275 13° North 112 129 3,500 -60 Descending Jacksonville Center
11:02AM 31.5292 -85.1131 62° Northeast 111 128 3,500 60 Level Jacksonville Center
11:03AM 31.3210 -85.4495 North  Level Estimated
11:03AM 31.5378 -85.0936 63° Northeast 94 108 3,700  Level Jacksonville Center
11:04AM 31.5392 -85.1278 273° West 111 128 3,500 -120 Descending Jacksonville Center
11:05AM 31.5619 -85.1381 339° North 116 133 3,500  Level Jacksonville Center
11:06AM 31.5917 -85.1194 28° Northeast 111 128 3,500  Level Jacksonville Center
11:07AM 31.6253 -85.1031 23° Northeast 118 136 3,500  Level Jacksonville Center
11:08AM 31.6550 -85.0842 28° Northeast 109 125 3,500 -240 Level Jacksonville Center
11:09AM 31.6778 -85.0944 339° North 81 93 3,000 -180 Descending Jacksonville Center
11:10AM 31.7006 -85.1025 343° North 85 98 3,200 240 Climbing Jacksonville Center
11:11AM 31.6875 -85.1217 231° Southwest 110 127 3,500 120 Climbing Jacksonville Center
11:12AM 31.6603 -85.1406 211° Southwest 108 124 3,500  Level Jacksonville Center
11:13AM 31.6328 -85.1544 203° Southwest 108 124 3,500  Level Jacksonville Center
11:14AM 31.6053 -85.1708 207° Southwest 108 124 3,500  Level Jacksonville Center
11:15AM 31.5778 -85.1897 210° Southwest 107 123 3,500  Level Jacksonville Center
11:16AM 31.5525 -85.2036 205° Southwest 106 122 3,500  Level Jacksonville Center
11:18AM 31.5170 -85.2383 220° Southwest  Level FlightAware Approximate